TimeCST,TemperatureF,Dew PointF,Humidity,Sea Level PressureIn,VisibilityMPH,Wind Direction,Wind SpeedMPH,Gust SpeedMPH,PrecipitationIn,Events,Conditions,WindDirDegrees,DateUTC
12:53 AM,33.1,28.9,85,30.01,10.0,South,3.5,-,N/A,,Clear,180,2013-11-09 06:53:00
1:53 AM,28.9,27.0,92,30.02,10.0,Calm,Calm,-,N/A,,Clear,0,2013-11-09 07:53:00
2:53 AM,30.9,27.0,85,30.04,10.0,South,3.5,-,N/A,,Clear,190,2013-11-09 08:53:00
3:53 AM,33.1,28.9,85,30.05,10.0,NW,5.8,-,N/A,,Clear,320,2013-11-09 09:53:00
4:53 AM,32.0,28.0,85,30.08,10.0,NW,5.8,-,N/A,,Clear,320,2013-11-09 10:53:00
5:53 AM,28.9,27.0,92,30.12,10.0,NW,5.8,-,N/A,,Clear,310,2013-11-09 11:53:00
6:53 AM,28.0,26.1,92,30.15,10.0,Calm,Calm,-,N/A,,Clear,0,2013-11-09 12:53:00
7:53 AM,30.0,27.0,88,30.17,10.0,NW,3.5,-,N/A,,Clear,320,2013-11-09 13:53:00
8:53 AM,37.9,32.0,79,30.19,10.0,NNW,3.5,-,N/A,,Clear,340,2013-11-09 14:53:00
9:53 AM,44.1,34.0,68,30.21,10.0,Calm,Calm,-,N/A,,Clear,0,2013-11-09 15:53:00
10:53 AM,51.1,33.1,50,30.21,10.0,NW,12.7,-,N/A,,Clear,320,2013-11-09 16:53:00
11:53 AM,53.1,33.1,47,30.23,10.0,WNW,9.2,-,N/A,,Clear,300,2013-11-09 17:53:00
12:53 PM,57.0,32.0,39,30.20,10.0,NW,8.1,-,N/A,,Clear,320,2013-11-09 18:53:00
1:53 PM,57.0,30.9,37,30.20,10.0,NNW,5.8,-,N/A,,Clear,330,2013-11-09 19:53:00
2:53 PM,57.9,32.0,37,30.20,10.0,NW,10.4,17.3,N/A,,Clear,320,2013-11-09 20:53:00
3:53 PM,57.0,30.9,37,30.22,10.0,North,9.2,-,N/A,,Clear,350,2013-11-09 21:53:00
4:53 PM,52.0,32.0,47,30.25,10.0,NNW,5.8,-,N/A,,Clear,340,2013-11-09 22:53:00
5:53 PM,41.0,32.0,70,30.29,10.0,NNW,4.6,-,N/A,,Clear,340,2013-11-09 23:53:00
6:53 PM,41.0,30.9,67,30.32,10.0,NW,3.5,-,N/A,,Clear,310,2013-11-10 00:53:00
7:53 PM,39.0,30.0,70,30.35,10.0,NNW,3.5,-,N/A,,Clear,330,2013-11-10 01:53:00
8:53 PM,37.0,28.0,70,30.36,10.0,WNW,3.5,-,N/A,,Clear,300,2013-11-10 02:53:00
9:53 PM,35.1,27.0,72,30.37,10.0,NW,4.6,-,N/A,,Clear,320,2013-11-10 03:53:00
10:53 PM,34.0,27.0,75,30.38,10.0,NNW,4.6,-,N/A,,Clear,330,2013-11-10 04:53:00
11:53 PM,36.0,28.0,73,30.39,10.0,North,3.5,-,N/A,,Mostly Cloudy,360,2013-11-10 05:53:00